EA4TN Weather Reports


time (UTC)temp
C
wind
direction
speed
KPH
gust
KPH
rain 1hr
cm
rain 24hr
cm
rain mn
cm
humidity
%
barometer
mb
20260505184055 17 321 4.8 17.7 0.00 0.00 0.00 34 1011.4
20260505183036 17 334 6.4 12.9 0.00 0.00 0.00 34 1011.2
20260505182015 18 318 6.4 14.5 0.00 0.00 0.00 34 1011.2
20260505181015 18 349 8.0 19.3 0.00 0.00 0.00 34 1011.2
20260505180016 18 329 4.8 14.5 0.00 0.00 0.00 35 1011.1
20260505175015 17 287 4.8 16.1 0.00 0.00 0.00 35 1011.0
20260505174015 17 313 6.4 14.5 0.00 0.00 0.00 36 1011.0
20260505173016 17 322 6.4 17.7 0.00 0.00 0.00 36 1011.0
20260505172016 17 332 6.4 14.5 0.00 0.00 0.00 36 1011.0
20260505171015 17 303 8.0 17.7 0.00 0.00 0.00 35 1011.2
20260505170015 18 295 8.0 20.9 0.00 0.00 0.00 34 1011.2
20260505165015 18 312 8.0 17.7 0.00 0.00 0.00 34 1011.2
20260505164016 18 329 6.4 16.1 0.00 0.00 0.00 33 1011.1
20260505163015 18 310 6.4 14.5 0.00 0.00 0.00 32 1011.0
20260505162016 18 307 12.9 22.5 0.00 0.00 0.00 31 1011.1
20260505161055 18 349 8.0 20.9 0.00 0.00 0.00 32 1011.1
20260505153016 19 277 8.0 20.9 0.00 0.00 0.00 31 1011.3
20260505152016 19 311 4.8 16.1 0.00 0.00 0.00 29 1011.3
20260505151016 18 272 8.0 20.9 0.00 0.00 0.00 31 1011.4
20260505125015 17 252 8.0 16.1 0.00 0.00 0.00 36 1012.3
20260505124016 17 263 9.7 19.3 0.00 0.00 0.00 38 1012.3
20260505123036 17 292 6.4 19.3 0.00 0.00 0.00 40 1012.3
20260505122016 17 276 8.0 19.3 0.00 0.00 0.00 41 1012.4
20260505121016 16 268 9.7 20.9 0.00 0.00 0.00 41 1012.5
20260505120016 17 307 8.0 20.9 0.00 0.00 0.00 42 1012.6
20260505115015 17 275 11.3 19.3 0.00 0.00 0.00 42 1012.6
20260505114036 16 271 8.0 19.3 0.00 0.00 0.00 45 1012.7
20260505112015 16 228 4.8 12.9 0.00 0.00 0.00 44 1012.8
20260505111016 16 275 6.4 16.1 0.00 0.00 0.00 46 1012.9
20260505102016 16 265 8.0 16.1 0.00 0.00 0.00 43 1013.1
20260505101016 16 270 8.0 16.1 0.00 0.00 0.00 43 1013.3
20260505100015 16 314 4.8 12.9 0.00 0.00 0.00 45 1013.2
20260505095036 15 303 4.8 11.3 0.00 0.00 0.00 46 1013.1
20260505094016 15 289 4.8 12.9 0.00 0.00 0.00 46 1013.2
20260505093016 15 276 6.4 12.9 0.00 0.00 0.00 47 1013.2
20260505092016 15 254 3.2 8.0 0.00 0.00 0.00 50 1013.2
20260505091016 15 255 1.6 9.7 0.00 0.00 0.00 50 1013.2
20260505090036 15 137 4.8 12.9 0.00 0.00 0.00 52 1013.2
20260505085016 15 187 4.8 9.7 0.00 0.00 0.00 57 1013.3
20260505084036 15 203 3.2 8.0 0.00 0.00 0.00 56 1013.3
20260505083016 14 276 3.2 4.8 0.00 0.00 0.00 59 1013.3
20260505082016 13 249 1.6 9.7 0.00 0.00 0.00 62 1013.3
20260505081015 13 229 4.8 9.7 0.00 0.00 0.00 63 1013.3
20260505080036 13 270 3.2 9.7 0.00 0.00 0.00 63 1013.3
20260505075016 13 249 3.2 6.4 0.00 0.00 0.00 65 1013.3
20260505074016 12 110 4.8 8.0 0.00 0.00 0.00 68 1013.3
20260505073036 12 269 1.6 6.4 0.00 0.00 0.00 69 1013.4
20260505072036 12 250 3.2 6.4 0.00 0.00 0.00 67 1013.3
20260505071036 12 258 3.2 4.8 0.00 0.00 0.00 66 1013.4
20260505070016 12 259 1.6 4.8 0.00 0.00 0.00 68 1013.3
20260505065016 12 213 3.2 4.8 0.00 0.00 0.00 66 1013.4
20260505064016 11 230 1.6 6.4 0.00 0.00 0.00 69 1013.3
20260505063036 11 242 1.6 4.8 0.00 0.00 0.00 71 1013.2
20260505062016 10 242 1.6 3.2 0.00 0.00 0.00 74 1013.0
20260505061016 10 242 0.0 4.8 0.00 0.00 0.00 75 1013.1
20260505060016 9 242 1.6 4.8 0.00 0.00 0.00 77 1012.9
20260505055016 9 0.0 0.0 0.00 0.00 0.00 78 1012.7
20260505054016 9 0.0 0.0 0.00 0.00 0.00 78 1012.8
20260505053016 9 0.0 3.2 0.00 0.00 0.00 78 1012.7
20260505052016 9 242 0.0 4.8 0.00 0.00 0.00 77 1012.7
20260505051016 9 242 1.6 4.8 0.00 0.00 0.00 77 1012.6
20260505041016 10 243 0.0 3.2 0.00 0.00 0.00 72 1012.8
20260505040016 10 243 1.6 4.8 0.00 0.00 0.00 72 1012.8
20260505035016 10 243 1.6 3.2 0.00 0.00 0.00 71 1012.7
20260505034016 10 0.0 0.0 0.00 0.00 0.00 71 1012.7
20260505033036 10 243 1.6 4.8 0.00 0.00 0.00 70 1012.7
20260505032016 11 243 3.2 4.8 0.00 0.00 0.00 69 1012.9
20260505031016 11 237 3.2 6.4 0.00 0.00 0.00 67 1012.9
20260505030016 11 256 3.2 6.4 0.00 0.00 0.00 64 1012.9
20260505025016 11 0.0 0.0 0.00 0.00 0.00 63 1013.0
20260505024016 11 316 0.0 3.2 0.00 0.00 0.00 63 1013.0
20260505023056 11 256 1.6 4.8 0.00 0.00 0.00 63 1013.1
20260505022016 11 280 1.6 4.8 0.00 0.00 0.00 62 1013.1
20260505021016 11 0.0 4.8 0.00 0.00 0.00 62 1013.1
20260505020016 12 278 1.6 3.2 0.00 0.00 0.00 61 1013.2
20260505015016 12 337 3.2 6.4 0.00 0.00 0.00 60 1013.2
20260505014016 12 340 1.6 8.0 0.00 0.00 0.00 60 1013.3
20260505013016 12 319 1.6 6.4 0.00 0.00 0.00 60 1013.3
20260505012016 12 23 1.6 11.3 0.00 0.00 0.00 59 1013.3
20260505011016 12 302 3.2 9.7 0.00 0.00 0.00 60 1013.2
20260505010016 12 310 4.8 9.7 0.00 0.00 0.00 61 1013.3
20260505005016 11 301 1.6 4.8 0.00 0.00 0.00 65 1013.2
20260505004016 12 218 1.6 4.8 0.00 0.00 0.00 65 1013.4
20260505003016 12 250 1.6 6.4 0.00 0.00 0.00 64 1013.3
20260505002016 12 293 0.0 3.2 0.00 0.00 0.00 64 1013.4
20260505001016 12 293 1.6 3.2 0.00 0.00 0.00 64 1013.3
20260505000016 12 279 1.6 6.4 0.00 0.00 0.00 65 1013.3
20260504235015 12 193 3.2 6.4 0.00 0.00 0.00 67 1013.4
20260504234016 12 225 3.2 6.4 0.00 0.00 0.00 67 1013.4
20260504233016 12 209 3.2 4.8 0.00 0.00 0.00 66 1013.3
20260504232016 12 194 3.2 8.0 0.00 0.00 0.00 66 1013.3
20260504231016 12 191 3.2 8.0 0.00 0.00 0.00 64 1013.2
20260504230016 12 198 1.6 6.4 0.00 0.00 0.00 63 1013.2
20260504225015 12 0.0 0.0 0.00 0.00 0.00 63 1013.1
20260504224016 12 0.0 0.0 0.00 0.00 0.00 63 1013.0
20260504223015 13 201 0.0 3.2 0.00 0.00 0.00 62 1013.0
20260504222035 13 195 1.6 4.8 0.00 0.00 0.00 62 1013.2
20260504221015 13 239 1.6 4.8 0.00 0.00 0.00 61 1013.2
20260504220136 13 245 0.0 3.2 0.00 0.00 0.00 60 1013.2
20260504215016 13 246 1.6 3.2 0.00 0.00 0.00 59 1013.2
20260504214015 14 219 1.6 4.8 0.00 0.00 0.00 58 1013.3
20260504213015 14 233 1.6 4.8 0.00 0.00 0.00 56 1013.3
20260504212036 15 269 3.2 8.0 0.00 0.00 0.00 55 1013.2
20260504211015 15 281 1.6 4.8 0.00 0.00 0.00 55 1013.1
20260504210016 15 297 3.2 4.8 0.00 0.00 0.00 55 1013.1
20260504205036 15 295 3.2 6.4 0.00 0.00 0.00 55 1013.0
20260504204016 15 289 3.2 9.7 0.00 0.00 0.00 56 1012.9
20260504203036 15 304 3.2 9.7 0.00 0.00 0.00 55 1012.8
20260504202016 15 308 3.2 6.4 0.00 0.00 0.00 55 1012.7
20260504201016 15 301 4.8 11.3 0.00 0.00 0.00 55 1012.5
20260504200156 15 303 3.2 8.0 0.00 0.00 0.00 55 1012.3
20260504195035 15 314 3.2 8.0 0.00 0.00 0.00 54 1012.2
20260504194016 15 317 3.2 8.0 0.00 0.00 0.00 53 1011.9
20260504193016 15 301 3.2 8.0 0.00 0.00 0.00 53 1011.6
20260504192015 16 295 3.2 8.0 0.00 0.00 0.00 53 1011.7
20260504191016 16 324 4.8 12.9 0.00 0.00 0.00 52 1011.5
20260504190016 16 316 9.7 20.9 0.00 0.00 0.00 50 1011.5
20260504185015 17 328 8.0 14.5 0.00 0.00 0.00 49 1011.5